Weather in Izi-Shurga

Russia / Mari El Republic     56°28′11″N   48°42′27″E
temp.,
°C
wind,
m/s
gust,
m/s
humid.,
%
clouds,
%
prec.,
mm/h
press.,
hPa
HPBL,
m
1 march, mon
mon100:00−19nnw239946 0.0 101747
03:00−21nnw239823 0.0 101952
06:00−22n22970 0.0 102020
09:00−17nw12900 0.0 1021159
12:00−12w238322 0.0 1020389
15:00−10wsw249144 0.0 1019406
18:00−12sw3897100 0.0 1017260
21:00−11sw4996100 0.1 1014273
2 march, tue
tue200:00−8sw51295100 0.9 1009477
03:00−5sw61395100 2.3 1005611
06:00−3sw61296100 1.6 1001609
09:000w51198100 2.9 999687
12:000w51098100 0.9 997740
15:000w51095100 1.8 997835
18:00−2wnw41092100 0.4 997537
21:00−3wnw5129295 0.6 998573
3 march, wed
wed300:00−4wnw4119392 0.1 999505
03:00−6wnw4119580 0.1 1000386
06:00−7wnw4119699 0.0 1000390
09:00−7nw599398 0.1 1001480
12:00−4nw5990100 0.2 1002854
15:00−5nw5990100 0.4 1004863
18:00−7wnw41094100 0.2 1004571
21:00−8wnw31094100 0.3 1005529
4 march, thu
thu400:00−9wsw389698 0.1 1004224
03:00−8wsw399699 0.4 1003319
06:00−7wsw389699 0.2 1002328
09:00−5sw489499 0.3 1001460
12:00−3sw51092100 0.2 998756
15:00−2sw71395100 1.6 995944
18:00−1wsw61296100 1.9 992909
21:00−1wsw51194100 2.6 991745
5 march, fri
fri500:00−1w51196100 0.9 989802
03:00−6w6128697 1.1 991895
06:00−9wnw71490100 0.1 996891
09:00−9nw61288100 0.3 1001659
12:00−7wnw598699 0.0 1005863
15:00−6wnw588287 0.1 1008860
18:00−10w239437 0.0 101060
21:00−10w389568 0.1 1012290